Vorticity
-3 10 10 8 7 5 6 6 5 4 5 5 5 7 8 8 8 7 8 7 7 6 5 5 5 4 6 7 5 5 7 9 9 8 7 5 6 7 7 6 7 6 5
-1 3 14 10 6 4 6 5 5 4 5 5 6 8 10 8 7 8 8 7 6 6 6 5 5 6 6 5 5 7 9 8 8 6 6 6 8 5 6 7 7 6 6
2 -3 2 7 8 5 5 5 5 4 5 6 6 8 10 9 8 9 7 7 6 6 6 6 5 4 5 7 7 8 8 8 6 6 5 8 5 7 6 5 5 6 6
4 6 7 9 7 6 4 7 5 4 6 5 8 10 11 7 9 8 8 7 6 6 6 5 4 5 6 7 7 8 8 8 6 6 6 7 6 5 5 6 7 5 7
5 9 11 8 4 7 6 6 3 5 7 7 9 11 8 9 8 9 8 7 7 7 4 4 6 7 6 6 6 7 8 7 6 6 6 6 6 5 4 3 -0 2 7
-1 8 11 8 8 7 6 5 5 7 8 8 12 10 9 9 9 8 7 8 5 4 5 5 4 5 6 7 7 7 7 6 6 6 6 6 5 5 6 6 5 6 4
11 9 9 10 11 9 8 8 8 10 8 12 10 10 9 10 8 8 7 5 4 4 4 4 6 6 6 7 8 8 8 7 7 6 6 7 6 6 6 6 6 6 5
8 12 12 13 13 13 12 12 12 9 11 10 10 9 10 7 7 6 5 4 4 5 5 4 6 9 11 10 9 8 7 6 7 7 7 6 6 5 6 6 6 7 3
2 2 9 13 16 15 13 9 9 8 8 9 10 9 7 7 5 4 4 4 3 3 6 10 12 11 8 7 7 7 7 7 6 6 5 5 5 6 6 7 7 8 9
20 17 14 12 10 9 8 7 7 9 11 10 8 7 5 5 5 4 4 3 6 10 12 10 8 7 7 5 4 3 4 5 5 5 4 5 7 7 9 10 9 8 8
13 13 11 9 7 7 6 8 10 9 9 7 6 5 7 6 5 4 6 9 11 12 9 6 4 4 5 5 6 6 6 6 6 6 7 8 9 9 8 8 7 7 7
9 8 6 7 7 7 9 8 6 7 7 6 8 8 7 5 6 10 13 12 7 4 4 3 4 6 8 9 9 8 8 7 7 9 12 11 11 9 9 9 9 10 9
3 5 7 9 9 7 6 6 6 8 9 10 9 7 6 9 12 12 5 3 2 2 5 7 10 10 9 8 6 6 8 9 9 8 7 7 8 9 9 10 11 11 12
8 5 6 4 7 8 5 7 10 10 9 7 6 8 9 12 5 3 3 1 3 8 10 10 8 8 8 10 11 10 10 9 8 7 7 8 10 12 12 11 12 13 13
7 9 9 11 7 4 9 12 10 8 6 6 7 9 7 5 5 4 3 6 12 9 8 11 12 10 8 7 6 5 5 6 6 7 9 10 10 10 10 11 13 14 16
-2 10 8 7 12 13 10 9 7 6 7 9 9 9 9 3 2 10 14 8 8 10 7 5 5 6 5 6 9 12 14 13 12 11 10 9 9 10 12 14 20 17 19
4 9 9 11 13 11 8 7 6 7 7 7 5 3 5 14 11 8 11 10 8 6 6 6 8 11 13 11 9 10 11 12 11 13 15 17 14 13 13 16 16 12 12
21 18 15 12 9 5 5 5 6 7 4 2 12 15 8 11 9 9 7 5 5 6 10 11 10 12 13 12 12 13 13 14 15 16 19 19 16 15 19 17 13 14 12
13 11 2 2 5 7 9 8 5 3 11 12 9 12 7 8 7 5 4 7 11 8 12 18 11 9 12 15 15 16 17 16 17 18 17 19 18 18 17 14 15 15 14
-2 3 7 6 8 8 6 8 10 10 8 13 7 9 7 5 4 6 11 6 14 20 12 13 9 10 18 19 18 19 24 25 23 18 18 20 15 13 13 13 14 15 16
5 12 12 12 12 9 5 11 7 11 10 10 8 5 3 5 7 14 3 15 14 13 10 5 13 18 15 14 21 28 25 19 19 11 12 22 28 21 20 15 14 12 11
13 10 10 11 7 8 10 10 10 11 9 5 4 4 6 12 14 2 12 17 14 10 6 11 15 13 15 24 21 20 16 22 11 18 18 15 7 7 10 9 8 9 10
9 8 11 6 9 10 9 9 9 6 5 3 5 10 13 10 6 13 18 12 10 8 9 13 14 15 20 17 15 16 18 11 10 3 8 9 12 13 15 11 14 11 8
10 14 10 12 9 8 9 8 6 5 5 4 14 10 7 7 16 16 11 10 10 8 13 14 15 12 16 12 13 13 14 13 12 11 9 9 9 12 12 13 14 15 14
6 11 10 8 9 10 8 6 5 3 6 16 8 5 8 16 15 14 9 10 11 11 13 15 15 9 9 9 11 9 10 7 6 7 8 9 5 9 18 18 14 10 11
10 9 10 11 10 7 5 4 3 10 14 9 6 5 14 14 16 10 9 10 12 12 13 16 16 13 9 8 10 10 6 10 10 9 7 9 14 16 18 13 14 15 11
Height
3147 3149 3149 3150 3151 3151 3152 3152 3152 3152 3152 3151 3150 3149 3148 3147 3147 3146 3146 3146 3145 3145 3144 3143 3141 3140 3138 3137 3135 3133 3131 3129 3127 3126 3124 3123 3121 3120 3118 3116 3114 3112 3110
3143 3145 3145 3146 3147 3147 3147 3148 3148 3148 3148 3147 3146 3145 3145 3144 3143 3143 3142 3142 3141 3141 3140 3139 3138 3136 3135 3133 3131 3130 3128 3126 3124 3122 3120 3118 3117 3115 3113 3111 3110 3108 3106
3138 3141 3141 3142 3142 3142 3142 3143 3144 3144 3143 3143 3142 3141 3140 3139 3139 3139 3139 3138 3138 3137 3136 3135 3134 3133 3132 3130 3128 3126 3124 3122 3119 3117 3116 3114 3112 3110 3109 3107 3105 3104 3103
3134 3136 3136 3136 3137 3137 3137 3138 3139 3139 3139 3138 3137 3136 3135 3135 3135 3135 3135 3135 3134 3134 3133 3132 3131 3129 3127 3124 3123 3121 3120 3118 3116 3114 3111 3109 3106 3104 3104 3101 3099 3098 3096
3127 3129 3130 3130 3131 3131 3132 3133 3133 3134 3134 3133 3132 3131 3131 3131 3130 3131 3131 3131 3131 3130 3128 3127 3125 3124 3122 3120 3118 3116 3114 3112 3110 3109 3107 3104 3101 3098 3096 3095 3095 3092 3090
3120 3123 3123 3123 3125 3127 3127 3128 3128 3129 3128 3128 3127 3127 3127 3127 3127 3127 3127 3126 3126 3125 3124 3121 3119 3118 3115 3114 3112 3110 3108 3106 3104 3101 3099 3097 3095 3092 3088 3085 3085 3082 3084
3114 3116 3117 3118 3120 3121 3122 3123 3123 3123 3123 3123 3123 3123 3123 3123 3122 3122 3121 3121 3120 3118 3117 3115 3113 3111 3110 3107 3105 3103 3101 3098 3096 3094 3092 3090 3087 3084 3082 3078 3076 3073 3074
3108 3110 3111 3113 3114 3116 3117 3117 3117 3118 3118 3118 3118 3118 3118 3118 3117 3117 3116 3114 3113 3112 3110 3108 3106 3104 3102 3099 3097 3095 3093 3090 3088 3086 3083 3082 3079 3076 3074 3070 3066 3063 3062
3104 3105 3107 3108 3109 3110 3111 3112 3112 3113 3112 3113 3113 3113 3113 3112 3112 3111 3110 3109 3107 3106 3103 3101 3099 3097 3094 3092 3089 3087 3085 3082 3080 3077 3075 3072 3070 3067 3064 3061 3058 3053 3046
3101 3102 3103 3104 3104 3105 3106 3107 3107 3107 3108 3108 3107 3107 3107 3107 3106 3105 3104 3103 3101 3098 3096 3094 3091 3089 3086 3083 3080 3078 3076 3072 3070 3067 3064 3061 3059 3056 3053 3050 3047 3044 3039
3097 3098 3099 3099 3100 3101 3102 3102 3102 3102 3102 3102 3102 3102 3102 3101 3100 3099 3098 3095 3093 3091 3089 3086 3084 3081 3077 3074 3071 3068 3065 3061 3058 3056 3052 3049 3045 3043 3040 3037 3035 3032 3029
3093 3094 3095 3096 3097 3097 3098 3097 3097 3097 3097 3096 3097 3096 3096 3095 3094 3092 3090 3088 3086 3083 3081 3078 3075 3071 3068 3064 3061 3057 3054 3050 3046 3042 3038 3035 3033 3029 3027 3024 3021 3018 3017
3090 3090 3091 3092 3092 3092 3092 3092 3092 3092 3092 3091 3091 3090 3089 3088 3086 3084 3082 3080 3078 3075 3071 3068 3064 3061 3058 3054 3050 3046 3042 3038 3034 3030 3026 3022 3018 3015 3013 3012 3008 3005 3001
3086 3086 3086 3086 3087 3087 3087 3087 3087 3087 3086 3086 3085 3084 3082 3081 3079 3077 3075 3072 3068 3065 3062 3059 3055 3051 3047 3043 3038 3034 3029 3025 3020 3016 3012 3009 3005 3001 2998 2995 2993 2990 2986
3081 3080 3081 3082 3082 3083 3083 3082 3082 3081 3080 3079 3078 3077 3075 3073 3071 3069 3066 3063 3059 3056 3052 3048 3044 3040 3035 3031 3026 3021 3015 3009 3004 3002 2998 2995 2992 2988 2984 2980 2976 2974 2971
3075 3076 3077 3077 3078 3077 3076 3076 3076 3075 3074 3073 3072 3069 3068 3065 3063 3060 3057 3054 3050 3045 3041 3037 3032 3028 3023 3018 3013 3006 3000 2995 2988 2984 2982 2979 2975 2972 2968 2965 2962 2960 2956
3070 3070 3070 3071 3071 3071 3071 3070 3069 3068 3067 3065 3064 3062 3060 3057 3054 3051 3047 3043 3039 3034 3029 3024 3019 3013 3007 3001 2996 2989 2982 2976 2972 2969 2966 2962 2959 2955 2952 2950 2947 2946 2945
3064 3064 3065 3066 3066 3066 3065 3064 3062 3062 3060 3058 3056 3054 3051 3048 3045 3041 3037 3032 3027 3022 3017 3011 3006 3000 2994 2987 2980 2973 2966 2960 2955 2953 2950 2946 2942 2941 2938 2934 2933 2932 2932
3060 3061 3061 3061 3060 3060 3058 3057 3055 3054 3053 3051 3048 3045 3042 3039 3035 3031 3027 3022 3016 3011 3006 3000 2993 2985 2980 2973 2966 2959 2952 2945 2940 2936 2932 2932 2928 2927 2925 2922 2920 2919 2919
3056 3055 3055 3054 3055 3054 3053 3051 3049 3046 3044 3042 3040 3037 3034 3030 3026 3022 3017 3011 3005 2998 2993 2988 2982 2975 2967 2960 2953 2947 2938 2932 2927 2924 2921 2919 2917 2915 2914 2912 2910 2907 2906
3051 3050 3049 3049 3048 3047 3045 3043 3041 3039 3037 3034 3032 3029 3025 3021 3016 3010 3005 2999 2993 2988 2984 2979 2971 2962 2955 2948 2942 2935 2929 2923 2919 2915 2912 2910 2907 2905 2904 2903 2901 2899 2897
3044 3043 3043 3041 3040 3039 3037 3036 3034 3033 3030 3027 3024 3020 3015 3010 3004 2999 2995 2991 2985 2980 2974 2966 2959 2952 2946 2939 2933 2926 2922 2918 2913 2909 2906 2903 2901 2898 2896 2894 2892 2890 2888
3037 3036 3035 3034 3034 3032 3031 3029 3026 3024 3022 3019 3015 3010 3005 3000 2995 2990 2985 2980 2975 2969 2962 2955 2948 2943 2938 2931 2925 2921 2916 2912 2908 2904 2900 2897 2894 2891 2888 2886 2883 2881 2879
3031 3029 3028 3027 3026 3025 3023 3021 3020 3017 3014 3010 3006 3001 2996 2992 2986 2980 2974 2968 2964 2960 2954 2946 2939 2934 2929 2924 2918 2914 2909 2906 2902 2898 2894 2891 2887 2884 2881 2877 2875 2873 2871
3025 3024 3023 3022 3020 3019 3017 3014 3012 3009 3005 3000 2997 2992 2987 2981 2976 2971 2965 2960 2957 2951 2944 2937 2931 2925 2920 2917 2913 2909 2904 2900 2897 2892 2887 2883 2879 2874 2871 2868 2865 2863 2861
3019 3018 3017 3016 3014 3014 3011 3008 3005 3001 2996 2991 2987 2982 2976 2971 2966 2962 2958 2953 2949 2943 2937 2930 2924 2920 2915 2911 2908 2904 2899 2895 2890 2885 2879 2874 2869 2865 2861 2858 2855 2854 2852